timestamp,wind_dir_avg,wind_spd_avg,wind_spd_max_dir,wind_spd_gust,battery_voltage,lat,long
2023-01-26 00:04:00+00:00,320.0,6.41,312.0,7.72,12.41,47.59359,-54.27349
2023-01-26 00:14:00+00:00,313.0,5.15,302.0,6.87,12.41,47.59359,-54.27349
2023-01-26 00:24:00+00:00,334.0,8.32,326.0,9.89,12.41,47.59359,-54.27349
2023-01-26 00:34:00+00:00,326.0,7.24,318.0,8.57,12.41,47.59359,-54.27349
2023-01-26 00:44:00+00:00,318.0,5.98,324.0,7.01,12.41,47.59359,-54.27349
2023-01-26 00:54:00+00:00,325.0,6.46,331.0,9.18,12.41,47.59359,-54.27349
2023-01-26 01:04:00+00:00,321.0,6.32,320.0,7.44,12.41,47.59359,-54.27349
2023-01-26 01:14:00+00:00,351.0,4.73,349.0,5.65,12.33,47.59359,-54.27349
2023-01-26 01:24:00+00:00,351.0,4.32,348.0,5.85,12.33,47.59359,-54.27349
2023-01-26 01:34:00+00:00,324.0,6.54,325.0,7.58,12.33,47.59359,-54.27349
2023-01-26 01:44:00+00:00,326.0,5.43,319.0,6.45,12.33,47.59359,-54.27349
2023-01-26 01:54:00+00:00,326.0,4.8,305.0,6.18,12.33,47.59359,-54.27349
2023-01-26 02:04:00+00:00,327.0,4.19,303.0,6.17,12.33,47.59359,-54.27349
2023-01-26 02:14:00+00:00,336.0,4.03,326.0,5.51,12.33,47.59359,-54.27349
2023-01-26 02:24:00+00:00,341.0,4.55,340.0,5.73,12.33,47.59359,-54.27349
2023-01-26 02:34:00+00:00,340.0,3.31,307.0,5.76,12.33,47.59359,-54.27349
2023-01-26 02:44:00+00:00,316.0,5.21,305.0,7.26,12.33,47.59359,-54.27349
2023-01-26 02:54:00+00:00,317.0,4.99,312.0,6.52,12.33,47.59359,-54.27349
2023-01-26 03:04:00+00:00,304.0,4.07,297.0,5.1,12.33,47.59359,-54.27349
2023-01-26 03:14:00+00:00,327.0,3.62,328.0,5.16,12.33,47.59359,-54.27349
2023-01-26 03:24:00+00:00,347.0,5.58,353.0,6.29,12.33,47.59359,-54.27349
2023-01-26 03:34:00+00:00,339.0,4.65,345.0,5.55,12.33,47.59359,-54.27349
2023-01-26 03:44:00+00:00,339.0,4.17,338.0,4.55,12.33,47.59359,-54.27349
2023-01-26 03:54:00+00:00,3.0,4.67,358.0,5.66,12.33,47.59359,-54.27349
2023-01-26 04:04:00+00:00,355.0,4.26,358.0,5.06,12.33,47.59359,-54.27349
2023-01-26 04:14:00+00:00,353.0,2.91,359.0,4.06,12.33,47.59359,-54.27349
2023-01-26 04:24:00+00:00,1.0,4.12,2.0,4.74,12.33,47.59359,-54.27349
2023-01-26 04:34:00+00:00,357.0,3.4,1.0,4.33,12.33,47.59359,-54.27349
2023-01-26 04:44:00+00:00,349.0,3.98,352.0,4.64,12.33,47.59359,-54.27349
2023-01-26 04:54:00+00:00,350.0,2.62,358.0,3.26,12.33,47.59359,-54.27349
2023-01-26 05:04:00+00:00,337.0,2.01,337.0,2.88,12.33,47.59359,-54.27349
2023-01-26 05:14:00+00:00,351.0,2.95,354.0,4.7,12.25,47.59359,-54.27349
2023-01-26 05:24:00+00:00,320.0,1.93,318.0,2.26,12.25,47.59359,-54.27349
2023-01-26 05:34:00+00:00,354.0,2.42,4.0,4.13,12.25,47.59359,-54.27349
2023-01-26 05:44:00+00:00,337.0,1.88,327.0,2.53,12.25,47.59359,-54.27349
2023-01-26 05:54:00+00:00,336.0,1.69,347.0,2.83,12.25,47.59359,-54.27349
2023-01-26 06:04:00+00:00,338.0,2.24,336.0,3.0,12.25,47.59359,-54.27349
2023-01-26 06:14:01+00:00,353.0,3.18,351.0,3.95,12.17,47.59359,-54.27349
2023-01-26 06:24:01+00:00,355.0,1.68,350.0,2.11,12.17,47.59359,-54.27349
2023-01-26 06:34:01+00:00,336.0,2.69,337.0,3.6,12.17,47.59359,-54.27349
2023-01-26 06:44:01+00:00,340.0,1.7,338.0,2.61,12.17,47.59359,-54.27349
2023-01-26 06:54:01+00:00,331.0,1.1,340.0,1.52,12.17,47.59359,-54.27349
2023-01-26 07:04:01+00:00,0.0,0.93,7.0,1.48,12.17,47.59359,-54.27349
2023-01-26 07:14:01+00:00,347.0,1.73,354.0,2.65,12.25,47.59359,-54.27349
2023-01-26 07:24:01+00:00,325.0,1.23,324.0,1.66,12.25,47.59359,-54.27349
2023-01-26 07:34:01+00:00,327.0,1.24,318.0,1.64,12.25,47.59359,-54.27349
2023-01-26 07:44:01+00:00,296.0,1.06,295.0,1.39,12.25,47.59359,-54.27349
2023-01-26 07:54:01+00:00,296.0,1.14,277.0,1.59,12.25,47.59359,-54.27349
2023-01-26 08:04:01+00:00,325.0,0.99,332.0,1.34,12.25,47.59359,-54.27349
2023-01-26 08:14:01+00:00,8.0,0.28,348.0,0.61,12.17,47.59359,-54.27349
2023-01-26 08:24:01+00:00,336.0,1.58,353.0,2.26,12.17,47.59359,-54.27349
2023-01-26 08:34:01+00:00,41.0,0.51,23.0,1.07,12.17,47.59359,-54.27349
2023-01-26 08:44:01+00:00,359.0,1.49,359.0,2.18,12.17,47.59359,-54.27349
2023-01-26 08:54:01+00:00,12.0,0.52,6.0,0.84,12.17,47.59359,-54.27349
2023-01-26 09:04:01+00:00,19.0,1.3,28.0,1.75,12.17,47.59359,-54.27349
2023-01-26 09:14:01+00:00,11.0,1.66,15.0,2.24,12.25,47.59359,-54.27349
2023-01-26 09:24:01+00:00,24.0,1.37,27.0,2.23,12.25,47.59359,-54.27349
2023-01-26 09:34:01+00:00,31.0,1.83,33.0,2.35,12.25,47.59359,-54.27349
2023-01-26 09:44:01+00:00,26.0,0.84,19.0,1.42,12.25,47.59359,-54.27349
2023-01-26 09:54:01+00:00,19.0,1.2,27.0,1.56,12.25,47.59359,-54.27349
2023-01-26 10:04:01+00:00,38.0,0.84,31.0,1.09,12.25,47.59359,-54.27349
2023-01-26 10:14:00+00:00,95.0,1.7,89.0,2.0,12.25,47.59359,-54.27349
2023-01-26 10:24:00+00:00,108.0,1.95,112.0,3.15,12.25,47.59359,-54.27349
2023-01-26 10:34:00+00:00,92.0,3.0,81.0,4.42,12.25,47.59359,-54.27349
2023-01-26 10:44:00+00:00,95.0,2.65,92.0,4.57,12.25,47.59359,-54.27349
2023-01-26 10:54:00+00:00,103.0,3.15,99.0,5.11,12.25,47.59359,-54.27349
2023-01-26 11:04:00+00:00,90.0,2.99,86.0,5.45,12.25,47.59359,-54.27349
2023-01-26 11:14:00+00:00,103.0,2.87,93.0,5.71,12.25,47.59359,-54.27349
2023-01-26 11:24:00+00:00,87.0,2.57,90.0,5.5,12.25,47.59359,-54.27349
2023-01-26 11:34:00+00:00,94.0,2.23,90.0,5.45,12.25,47.59359,-54.27349
2023-01-26 11:44:00+00:00,121.0,3.66,114.0,4.88,12.25,47.59359,-54.27349
2023-01-26 11:54:00+00:00,105.0,4.29,97.0,6.11,12.25,47.59359,-54.27349
2023-01-26 12:04:00+00:00,106.0,3.29,101.0,6.17,12.25,47.59359,-54.27349
2023-01-26 12:14:01+00:00,118.0,3.91,105.0,5.91,12.65,47.59359,-54.27349
2023-01-26 12:24:01+00:00,123.0,4.53,113.0,5.85,12.65,47.59359,-54.27349
2023-01-26 12:34:01+00:00,118.0,4.68,107.0,6.31,12.65,47.59359,-54.27349
2023-01-26 12:44:01+00:00,129.0,4.68,121.0,6.03,12.65,47.59359,-54.27349
2023-01-26 12:54:01+00:00,129.0,4.96,119.0,6.57,12.65,47.59359,-54.27349
2023-01-26 13:04:01+00:00,137.0,5.85,139.0,6.73,12.65,47.59359,-54.27349
2023-01-26 13:14:01+00:00,132.0,5.49,134.0,6.15,14.32,47.59359,-54.27349
2023-01-26 13:24:01+00:00,126.0,4.74,128.0,5.83,14.32,47.59359,-54.27349
2023-01-26 13:34:01+00:00,103.0,4.22,99.0,6.13,14.32,47.59359,-54.27349
2023-01-26 13:44:01+00:00,123.0,4.51,114.0,6.18,14.32,47.59359,-54.27349
2023-01-26 13:54:01+00:00,131.0,5.19,127.0,6.05,14.32,47.59359,-54.27349
2023-01-26 14:04:01+00:00,132.0,5.18,125.0,5.99,14.32,47.59359,-54.27349
2023-01-26 14:14:00+00:00,141.0,4.04,117.0,5.93,13.53,47.59359,-54.27349
2023-01-26 14:24:00+00:00,141.0,4.91,142.0,5.7,13.53,47.59359,-54.27349
2023-01-26 14:34:00+00:00,143.0,4.04,144.0,5.4,13.53,47.59359,-54.27349
2023-01-26 14:44:00+00:00,152.0,5.48,155.0,6.22,13.53,47.59359,-54.27349
2023-01-26 14:54:00+00:00,155.0,6.22,152.0,7.18,13.53,47.59359,-54.27349
2023-01-26 15:04:00+00:00,166.0,4.74,160.0,5.34,13.53,47.59359,-54.27349
2023-01-26 15:14:00+00:00,149.0,6.69,149.0,7.31,13.53,47.59359,-54.27349
2023-01-26 15:24:00+00:00,166.0,5.97,169.0,6.92,13.53,47.59359,-54.27349
2023-01-26 15:34:00+00:00,154.0,5.12,162.0,5.8,13.53,47.59359,-54.27349
2023-01-26 15:44:00+00:00,161.0,7.17,160.0,7.8,13.53,47.59359,-54.27349
2023-01-26 15:54:00+00:00,151.0,6.03,151.0,6.6,13.53,47.59359,-54.27349
2023-01-26 16:04:00+00:00,149.0,6.21,154.0,6.96,13.53,47.59359,-54.27349
2023-01-26 16:14:01+00:00,153.0,4.96,151.0,5.89,13.29,47.59359,-54.27349
2023-01-26 16:24:01+00:00,166.0,6.75,166.0,7.4,13.29,47.59359,-54.27349
2023-01-26 16:34:01+00:00,173.0,7.37,169.0,8.5,13.29,47.59359,-54.27349
2023-01-26 16:44:01+00:00,174.0,7.87,183.0,8.92,13.29,47.59359,-54.27349
2023-01-26 16:54:01+00:00,180.0,6.66,187.0,7.74,13.29,47.59359,-54.27349
2023-01-26 17:04:01+00:00,180.0,7.79,177.0,9.18,13.29,47.59359,-54.27349
2023-01-26 17:14:00+00:00,184.0,8.46,179.0,9.58,13.05,47.59359,-54.27349
2023-01-26 17:24:00+00:00,188.0,8.68,183.0,9.95,13.05,47.59359,-54.27349
2023-01-26 17:34:00+00:00,167.0,9.19,157.0,10.52,13.05,47.59359,-54.27349
2023-01-26 17:44:00+00:00,182.0,8.79,176.0,10.32,13.05,47.59359,-54.27349
2023-01-26 17:54:00+00:00,188.0,8.55,190.0,9.87,13.05,47.59359,-54.27349
2023-01-26 18:04:00+00:00,183.0,11.49,186.0,13.04,13.05,47.59359,-54.27349
2023-01-26 18:14:01+00:00,182.0,11.83,187.0,13.66,12.89,47.59359,-54.27349
2023-01-26 18:24:01+00:00,185.0,11.15,186.0,12.8,12.89,47.59359,-54.27349
2023-01-26 18:34:01+00:00,185.0,11.68,188.0,13.46,12.89,47.59359,-54.27349
2023-01-26 18:44:01+00:00,181.0,11.54,191.0,12.47,12.89,47.59359,-54.27349
2023-01-26 18:54:01+00:00,183.0,10.97,184.0,13.06,12.89,47.59359,-54.27349
2023-01-26 19:04:01+00:00,186.0,10.89,187.0,13.05,12.89,47.59359,-54.27349
2023-01-26 19:14:00+00:00,184.0,10.95,187.0,12.85,12.81,47.59359,-54.27349
2023-01-26 19:24:00+00:00,182.0,11.62,185.0,14.8,12.81,47.59359,-54.27349
2023-01-26 19:34:00+00:00,183.0,9.96,189.0,13.06,12.81,47.59359,-54.27349
2023-01-26 19:44:00+00:00,186.0,10.19,192.0,12.06,12.81,47.59359,-54.27349
2023-01-26 19:54:00+00:00,185.0,9.26,201.0,10.28,12.81,47.59359,-54.27349
2023-01-26 20:04:00+00:00,186.0,11.0,187.0,13.68,12.81,47.59359,-54.27349
2023-01-26 20:14:00+00:00,182.0,13.24,180.0,14.82,12.49,47.59359,-54.27349
2023-01-26 20:24:00+00:00,187.0,10.82,188.0,14.22,12.49,47.59359,-54.27349
2023-01-26 20:34:00+00:00,185.0,11.9,177.0,13.5,12.49,47.59359,-54.27349
2023-01-26 20:44:00+00:00,183.0,15.03,188.0,18.43,12.49,47.59359,-54.27349
2023-01-26 20:54:00+00:00,184.0,15.8,188.0,18.82,12.49,47.59359,-54.27349
2023-01-26 21:04:00+00:00,183.0,13.56,176.0,15.9,12.49,47.59359,-54.27349
2023-01-26 21:14:00+00:00,183.0,14.2,183.0,18.2,12.49,47.59359,-54.27349
2023-01-26 21:24:00+00:00,181.0,12.33,179.0,14.63,12.49,47.59359,-54.27349
2023-01-26 21:34:00+00:00,177.0,14.86,183.0,17.79,12.49,47.59359,-54.27349
2023-01-26 21:44:00+00:00,173.0,14.55,165.0,17.91,12.49,47.59359,-54.27349
2023-01-26 21:54:00+00:00,183.0,17.27,175.0,20.41,12.49,47.59359,-54.27349
2023-01-26 22:04:00+00:00,182.0,15.07,179.0,17.48,12.49,47.59359,-54.27349
2023-01-26 22:14:00+00:00,181.0,13.22,181.0,14.91,12.41,47.59359,-54.27349
2023-01-26 22:24:00+00:00,182.0,13.64,185.0,16.54,12.41,47.59359,-54.27349
2023-01-26 22:34:00+00:00,183.0,15.89,182.0,19.46,12.41,47.59359,-54.27349
2023-01-26 22:44:00+00:00,181.0,15.69,185.0,18.08,12.41,47.59359,-54.27349
2023-01-26 22:54:00+00:00,178.0,14.56,166.0,18.06,12.41,47.59359,-54.27349
2023-01-26 23:04:00+00:00,184.0,15.84,182.0,19.55,12.41,47.59359,-54.27349
2023-01-26 23:14:00+00:00,180.0,16.03,169.0,20.64,12.41,47.59359,-54.27349
2023-01-26 23:24:00+00:00,182.0,14.19,183.0,16.65,12.41,47.59359,-54.27349
2023-01-26 23:34:00+00:00,184.0,14.14,184.0,16.7,12.41,47.59359,-54.27349
2023-01-26 23:44:00+00:00,182.0,13.42,187.0,15.46,12.41,47.59359,-54.27349
2023-01-26 23:54:00+00:00,181.0,14.82,159.0,18.84,12.41,47.59359,-54.27349
